Погода в Медине

Саудовская Аравия     24°27′57″N   39°38′30″E
темп.,
°C
ветер,
м/с
пор.,
м/с
влажн.,
%
обл.,
%
осадки,
мм/ч
давл.,
гПа
погр.,
м
18 сентября, сб
сб1800:00+31зюз2320100 0.0 1006178
03:00+30з342398 0.0 1006119
06:00+27юз113180 0.0 100871
09:00+31зюз222474 0.0 1009682
12:00+37зюз34125 0.0 10071988
15:00+39зюз9795 0.0 10053871
18:00+35зюз99135 0.0 1006896
21:00+32зюз57194 0.0 1009163
19 сентября, вс
вс1900:00+30зюз34236 0.0 100894
03:00+28з332597 0.0 100877
06:00+27с222743 0.0 101061
09:00+32з21195 0.0 1011546
12:00+37з22125 0.0 10091374
15:00+39з22100 0.0 10062841
18:00+38зюз6692 0.0 1006544
21:00+34з46125 0.0 1009129
20 сентября, пн
пн2000:00+31зсз23135 0.0 100968
03:00+30зсз221495 0.0 100858
06:00+28сз111717 0.0 101042
09:00+34всв45145 0.0 1010966
12:00+39ююв5595 0.0 10083345
15:00+41всв24843 0.0 10054920
18:00+39св021080 0.0 1005973
21:00+36с231271 0.0 1006357
21 сентября, вт
вт2100:00+35св4612100 0.0 1008145
03:00+33всв691434 0.0 1008227
06:00+30в611165 0.0 1010214
09:00+35вюв79125 0.0 10101027
12:00+40юв5494 0.0 10084019
15:00+41юв33864 0.0 10054920
18:00+39вюв55982 0.0 10051082
21:00+37сз7101126 0.0 1007370
22 сентября, ср
ср2200:00+32с231478 0.0 100876
03:00+31ссз111476 0.0 100758
06:00+31св221487 0.0 100844
09:00+34св111242 0.0 1009758
12:00+39з341046 0.0 10063181
15:00+41сз35932 0.0 10044699
18:00+39з89999 0.0 10041092
21:00+34сз712123 0.0 1006405